STARLINK-35077

Last updated on Tue Oct 07 2025 00:02:05 GMT+0000 (Coordinated Universal Time)

1 65529U 25200K 25279.50003471 -.01589646 00000+0 -33725-1 0 9992 2 65529 97.6036 346.2090 0001672 73.4694 25.4135 15.48089150 5818

Satellite not in orbit

STARLINK-35077